• Join FlightAware (Why Join?)
  • Login
  • US Flag GB Flag 
03:11 EDT


 

Airport Tracker/Info


-or-


 

Live Flight TrackerFlight Track Log ✈ AAL1624 ✈ 22-Apr-2013 ✈ KORD - KMCI

Flight Track Log - Related Links

Times and Time Zones

All times are in EDT time to prevent confusion due to time zone crossing. See the AAL1624 flight status page for this flight to view local times or setup timezone preferences in your user account.

Time Position Orientation Groundspeed Altitude Reporting Facility
EDT Latitude Longitude Course Direction KTS MPH feet Rate Location/Type
23:22 41.9530 -87.8990 231° Southwest 160 184 700  Level FlightAware
23:22 41.9380 -87.9190 225° Southwest 161 185 2,000 1,920 Climbing FlightAware
23:22 41.9240 -87.9390 227° Southwest 197 227 2,500 1,620 Climbing FlightAware
23:23 41.9030 -87.9660 224° Southwest 224 258 3,500 2,580 Climbing FlightAware
23:23 41.8790 -87.9960 223° Southwest 228 262 5,100 2,940 Climbing FlightAware
23:24 41.8590 -88.0220 224° Southwest 242 278 6,200 2,820 Climbing FlightAware
23:24 41.8340 -88.0550 225° Southwest 258 297 7,700 3,120 Climbing FlightAware
23:25 41.8230 -88.0900 247° West 261 300 9,100 3,420 Climbing FlightAware
23:26 41.8050 -88.1640 252° West 273 314 11,700 2,640 Climbing FlightAware
23:26 41.8060 -88.2350 271° West 313 360 12,900 1,200 Climbing FlightAware
23:27 41.8000 -88.3150 264° West 344 396 13,300 2,040 Climbing FlightAware
23:28 41.7880 -88.4100 260° West 356 410 15,800 3,120 Climbing FlightAware
23:28 41.7780 -88.4970 261° West 366 421 17,800 3,000 Climbing FlightAware
23:29 41.7650 -88.6000 260° West 376 433 20,100 2,880 Climbing FlightAware
23:30 41.7550 -88.6850 261° West 381 438 21,900 2,520 Climbing FlightAware
23:30 41.7360 -88.7790 255° West 391 450 23,500 2,280 Climbing FlightAware
23:31 41.7130 -88.8840 254° West 401 461 25,200 2,220 Climbing FlightAware
23:32 41.6910 -88.9870 254° West 408 470 26,700 2,160 Climbing FlightAware
23:33 41.6630 -89.0970 251° West 412 474 28,300 2,460 Climbing FlightAware
23:33 41.6280 -89.1860 242° Southwest 399 459 30,200 2,760 Climbing FlightAware
23:34 41.5940 -89.2730 242° Southwest 390 449 32,000 2,400 Climbing FlightAware
23:35 41.5580 -89.3650 242° Southwest 383 441 33,600 1,920 Climbing FlightAware
23:35 41.5250 -89.4470 242° Southwest 380 437 34,800 1,380 Climbing FlightAware
23:36 41.4870 -89.5440 242° Southwest 391 450 35,600 720 Climbing FlightAware
23:37 41.4520 -89.6320 242° Southwest 408 470 35,900 780 Climbing FlightAware
23:37 41.4170 -89.7180 242° Southwest 410 472 36,700 1,320 Climbing FlightAware
23:38 41.3780 -89.8170 242° Southwest 406 467 37,800 900 Climbing FlightAware
23:39 41.3420 -89.9050 241° Southwest 401 461 38,000 120 Climbing FlightAware
23:40 41.3010 -90.0050 241° Southwest 400 460 38,000  Level FlightAware
23:40 41.2630 -90.0990 242° Southwest 399 459 38,000  Level FlightAware
23:41 41.2330 -90.1740 242° Southwest 398 458 38,000  Level FlightAware
23:42 41.1940 -90.2700 242° Southwest 398 458 38,000  Level FlightAware
23:42 41.1530 -90.3700 241° Southwest 394 453 38,000  Level FlightAware
23:43 41.1240 -90.4410 242° Southwest 392 451 38,000  Level FlightAware
23:44 41.0840 -90.5390 242° Southwest 390 449 38,000  Level FlightAware
23:44 41.0470 -90.6290 241° Southwest 389 448 38,000  Level FlightAware
23:45 41.0140 -90.7080 241° Southwest 388 447 38,000  Level FlightAware
23:46 40.9770 -90.7970 241° Southwest 388 447 38,000  Level FlightAware
23:47 40.9380 -90.8910 241° Southwest 387 445 38,000  Level FlightAware
23:47 40.9020 -90.9760 241° Southwest 386 444 38,000  Level FlightAware
23:48 40.8680 -91.0580 241° Southwest 386 444 38,000  Level FlightAware
23:49 40.8310 -91.1460 241° Southwest 386 444 38,000  Level FlightAware
23:49 40.7910 -91.2410 241° Southwest 386 444 38,000  Level FlightAware
23:50 40.7420 -91.3560 241° Southwest 388 447 38,000  Level FlightAware
23:51 40.7070 -91.4380 241° Southwest 388 447 38,000  Level FlightAware
23:52 40.6720 -91.5210 241° Southwest 388 447 38,000  Level FlightAware
23:52 40.6340 -91.6110 241° Southwest 387 445 38,000  Level FlightAware
23:53 40.5930 -91.7060 240° Southwest 385 443 38,000  Level FlightAware
23:54 40.5590 -91.7870 241° Southwest 384 442 38,000  Level FlightAware
23:54 40.5240 -91.8680 240° Southwest 383 441 38,000  Level FlightAware
23:55 40.4850 -91.9570 240° Southwest 381 438 38,000 -120 Level FlightAware
23:56 40.4510 -92.0380 241° Southwest 382 440 37,900 -660 Descending FlightAware
23:57 40.4030 -92.1470 240° Southwest 381 438 37,000 -960 Descending FlightAware
23:58 40.3640 -92.2370 240° Southwest 385 443 36,300 -1,020 Descending FlightAware
23:58 40.3280 -92.3190 240° Southwest 386 444 35,600 -1,020 Descending FlightAware
23:59 40.2870 -92.4120 240° Southwest 388 447 34,900 -1,020 Descending FlightAware
00:00 40.2510 -92.4930 240° Southwest 381 438 34,200 -1,020 Descending FlightAware
00:00 40.2170 -92.5730 241° Southwest 379 436 33,600 -960 Descending FlightAware
00:01 40.1780 -92.6610 240° Southwest 384 442 32,900 -1,020 Descending FlightAware
00:02 40.1420 -92.7430 240° Southwest 390 449 32,200 -1,020 Descending FlightAware
00:02 40.1010 -92.8330 239° Southwest 398 458 31,500 -960 Descending FlightAware
00:03 40.0630 -92.9190 240° Southwest 399 459 30,900 -1,020 Descending FlightAware
00:04 40.0260 -93.0020 240° Southwest 396 456 30,200 -1,080 Descending FlightAware
00:05 39.9850 -93.0940 240° Southwest 392 451 29,400 -1,080 Descending FlightAware
00:05 39.9490 -93.1750 240° Southwest 380 437 28,700 -1,020 Descending FlightAware
00:06 39.9150 -93.2510 240° Southwest 372 428 28,100 -1,020 Descending FlightAware
00:07 39.8750 -93.3390 239° Southwest 367 422 27,300 -1,080 Descending FlightAware
00:07 39.8400 -93.4150 239° Southwest 363 418 26,600 -1,020 Descending FlightAware
00:08 39.8030 -93.4970 240° Southwest 358 412 25,900 -1,020 Descending FlightAware
00:09 39.7700 -93.5710 240° Southwest 351 404 25,200 -1,380 Descending FlightAware
00:09 39.7320 -93.6530 239° Southwest 339 390 24,000 -1,860 Descending FlightAware
00:10 39.7010 -93.7210 239° Southwest 328 377 22,600 -2,040 Descending FlightAware
00:11 39.6700 -93.7900 240° Southwest 337 388 21,300 -2,100 Descending FlightAware
00:12 39.6340 -93.8680 239° Southwest 339 390 19,700 -2,160 Descending FlightAware
00:12 39.6010 -93.9350 237° Southwest 337 388 18,300 -2,100 Descending FlightAware
00:13 39.5670 -94.0030 237° Southwest 333 383 16,900 -1,980 Descending FlightAware
00:14 39.5280 -94.0790 236° Southwest 327 376 15,500 -1,800 Descending FlightAware
00:14 39.4950 -94.1430 236° Southwest 320 368 14,400 -1,800 Descending FlightAware
00:15 39.4640 -94.2060 238° Southwest 321 369 13,100 -1,860 Descending FlightAware
00:16 39.4270 -94.2780 236° Southwest 314 361 11,800 -1,200 Descending FlightAware
00:16 39.3930 -94.3450 237° Southwest 284 327 11,300 -1,080 Descending FlightAware
00:17 39.3680 -94.3930 236° Southwest 272 313 10,400 -1,680 Descending FlightAware
00:18 39.3480 -94.4330 237° Southwest 271 312 9,500 -1,620 Descending FlightAware
00:18 39.3270 -94.4740 236° Southwest 269 310 8,800 -1,320 Descending FlightAware
00:18 39.3090 -94.5090 236° Southwest 266 306 8,300 -900 Descending FlightAware
00:19 39.3000 -94.5270 237° Southwest 256 295 8,200 -420 Descending FlightAware
00:19 39.2810 -94.5640 236° Southwest 236 272 8,000 -600 Descending FlightAware
00:20 39.2630 -94.5950 233° Southwest 223 257 7,600 -780 Descending FlightAware
00:20 39.2540 -94.6020 211° Southwest 219 252 7,500 -1,080 Descending FlightAware
00:20 39.2240 -94.6100 192° South 213 245 6,900 -1,440 Descending FlightAware
00:21 39.2010 -94.6160 191° South 207 238 6,200 -1,800 Descending FlightAware
00:21 39.1710 -94.6250 193° South 210 242 5,300 -1,920 Descending FlightAware
00:22 39.1420 -94.6340 194° South 218 251 4,300 -1,560 Descending FlightAware
00:22 39.1220 -94.6470 207° Southwest 209 241 3,900 -600 Descending FlightAware
00:22 39.1150 -94.6650 243° Southwest 199 229 3,900  Level FlightAware
00:23 39.1020 -94.7030 246° West 199 229 3,900 -600 Level FlightAware
00:24 39.1333 -94.7500 246° West 179 206 3,000 -480 Descending Kansas City TRACON
00:25 39.1900 -94.7364 11° North 172 198 3,000 -480 Level Kansas City Center
00:26 39.2325 -94.7244 12° North 163 188 2,100 -900 Descending Kansas City Center